Location: Forest
(37.3641°N, 79.2902°W)
Time: 03:04:06
(UTC+00:00)

ACS3 Solar Sail - Pass Details

Date: 06 October 2024
Orbit: 961 x 1022 km, 97.5° (Epoch: 03 November)

Event Time Altitude Azimuth Distance (km) Brightness Sun altitude
Exits shadow 01:24:49 87° 221° (SW) 1,029 1.8 -30.5°
Maximum altitude 01:24:53 88° 256° (WSW) 1,029 1.8 -30.6°
Drops below altitude 10° 01:31:19 10° 348° (NNW) 2,835 4.5 -31.8°
Sets 01:33:51 0° 349° (NNW) 3,794 5.3 -32.2°
